| time (UTC) | temp C | wind direction | speed KPH | gust KPH | rain 1hr cm | rain 24hr cm | rain mn cm | humidity % | barometer mb |
| 20260505080139 | 11 | 182 | 4.8 | 9.7 | 0.00 | 0.00 | 0.00 | 81 | 1008.8 |
| 20260505074655 | 11 | 141 | 6.4 | 11.3 | 0.00 | 0.00 | 0.00 | 81 | 1008.8 |
| 20260505073150 | 11 | 218 | 6.4 | 11.3 | 0.00 | 0.00 | 0.00 | 81 | 1008.8 |
| 20260505071644 | 11 | 223 | 8.0 | 16.1 | 0.00 | 0.00 | 0.00 | 82 | 1008.9 |
| 20260505070143 | 11 | 175 | 6.4 | 14.5 | 0.00 | 0.00 | 0.00 | 81 | 1008.9 |
| 20260505064633 | 12 | 175 | 4.8 | 11.3 | 0.00 | 0.00 | 0.00 | 79 | 1008.8 |
| 20260505063149 | 12 | 137 | 4.8 | 14.5 | 0.00 | 0.00 | 0.00 | 78 | 1008.9 |
| 20260505061647 | 12 | 153 | 4.8 | 11.3 | 0.00 | 0.00 | 0.00 | 77 | 1009.0 |
| 20260505060143 | 12 | 157 | 6.4 | 16.1 | 0.00 | 0.00 | 0.00 | 77 | 1009.0 |
| 20260505054635 | 12 | 219 | 4.8 | 14.5 | 0.00 | 0.00 | 0.00 | 76 | 1008.8 |
| 20260505053150 | 12 | 207 | 6.4 | 16.1 | 0.00 | 0.00 | 0.00 | 75 | 1008.7 |
| 20260505051643 | 12 | 192 | 8.0 | 14.5 | 0.00 | 0.00 | 0.00 | 75 | 1008.9 |
| 20260505050134 | 12 | 191 | 6.4 | 20.9 | 0.00 | 0.00 | 0.00 | 74 | 1009.0 |
| 20260505041635 | 13 | 184 | 6.4 | 14.5 | 0.00 | 0.00 | 0.00 | 73 | 1009.1 |
| 20260505040209 | 13 | 167 | 6.4 | 11.3 | 0.00 | 0.00 | 0.00 | 72 | 1009.0 |
| 20260505034647 | 13 | 113 | 6.4 | 12.9 | 0.00 | 0.00 | 0.00 | 70 | 1009.0 |
| 20260505033136 | 13 | 133 | 8.0 | 16.1 | 0.00 | 0.00 | 0.00 | 69 | 1008.9 |
| 20260505031712 | 13 | 149 | 8.0 | 16.1 | 0.00 | 0.00 | 0.00 | 68 | 1008.9 |
| 20260505030206 | 13 | 148 | 6.4 | 14.5 | 0.00 | 0.00 | 0.00 | 67 | 1009.0 |
| 20260505024635 | 13 | 175 | 8.0 | 16.1 | 0.00 | 0.00 | 0.00 | 65 | 1008.9 |
| 20260505023151 | 14 | 141 | 8.0 | 16.1 | 0.00 | 0.00 | 0.00 | 64 | 1009.0 |
| 20260505021647 | 14 | 167 | 8.0 | 16.1 | 0.00 | 0.00 | 0.00 | 64 | 1009.0 |
| 20260505020202 | 13 | 199 | 4.8 | 16.1 | 0.00 | 0.00 | 0.00 | 65 | 1008.9 |
| 20260505014634 | 14 | 227 | 6.4 | 17.7 | 0.00 | 0.00 | 0.00 | 64 | 1008.8 |
| 20260505013140 | 14 | 192 | 9.7 | 17.7 | 0.00 | 0.00 | 0.00 | 65 | 1008.6 |
| 20260505011658 | 15 | 146 | 9.7 | 17.7 | 0.00 | 0.00 | 0.00 | 63 | 1008.3 |
| 20260505010150 | 14 | 164 | 9.7 | 14.5 | 0.00 | 0.00 | 0.00 | 64 | 1008.1 |
| 20260505004637 | 15 | 296 | 12.9 | 20.9 | 0.00 | 0.00 | 0.00 | 62 | 1007.8 |
| 20260505003152 | 15 | 136 | 9.7 | 24.1 | 0.00 | 0.00 | 0.00 | 58 | 1007.5 |
| 20260505001643 | 15 | 121 | 16.1 | 27.4 | 0.00 | 0.00 | 0.00 | 58 | 1007.0 |
| 20260505000144 | 15 | 166 | 16.1 | 25.7 | 0.00 | 0.00 | 0.00 | 59 | 1006.6 |
| 20260504234636 | 16 | 127 | 17.7 | 27.4 | 0.00 | 0.00 | 0.00 | 58 | 1006.4 |
| 20260504233153 | 16 | 129 | 17.7 | 27.4 | 0.00 | 0.00 | 0.00 | 55 | 1006.1 |
| 20260504231650 | 17 | 169 | 14.5 | 32.2 | 0.00 | 0.00 | 0.00 | 51 | 1005.7 |
| 20260504230142 | 17 | 169 | 11.3 | 30.6 | 0.00 | 0.00 | 0.00 | 50 | 1005.4 |
| 20260504224634 | 17 | 200 | 12.9 | 27.4 | 0.00 | 0.00 | 0.00 | 51 | 1005.3 |
| 20260504223150 | 18 | 139 | 14.5 | 33.8 | 0.00 | 0.00 | 0.00 | 49 | 1004.9 |
| 20260504221643 | 18 | 138 | 9.7 | 17.7 | 0.00 | 0.00 | 0.00 | 48 | 1005.0 |
| 20260504220157 | 20 | 268 | 17.7 | 27.4 | 0.00 | 0.00 | 0.00 | 41 | 1005.0 |
| 20260504214650 | 21 | 184 | 16.1 | 25.7 | 0.00 | 0.00 | 0.00 | 33 | 1005.0 |
| 20260504213140 | 21 | 207 | 19.3 | 27.4 | 0.00 | 0.00 | 0.00 | 32 | 1005.1 |
| 20260504211656 | 20 | 186 | 11.3 | 22.5 | 0.00 | 0.00 | 0.00 | 41 | 1005.0 |
| 20260504210150 | 21 | 248 | 14.5 | 30.6 | 0.00 | 0.00 | 0.00 | 36 | 1005.1 |
| 20260504204646 | 22 | 173 | 14.5 | 29.0 | 0.00 | 0.00 | 0.00 | 32 | 1004.9 |
| 20260504203137 | 20 | 194 | 16.1 | 27.4 | 0.00 | 0.00 | 0.00 | 39 | 1005.0 |
| 20260504201650 | 21 | 221 | 19.3 | 32.2 | 0.00 | 0.00 | 0.00 | 30 | 1005.2 |
| 20260504200147 | 21 | 190 | 12.9 | 25.7 | 0.00 | 0.00 | 0.00 | 35 | 1005.2 |
| 20260504194643 | 21 | 238 | 8.0 | 29.0 | 0.00 | 0.00 | 0.00 | 36 | 1005.3 |
| 20260504193135 | 21 | 218 | 20.9 | 35.4 | 0.00 | 0.00 | 0.00 | 33 | 1005.3 |
| 20260504191712 | 21 | 229 | 20.9 | 33.8 | 0.00 | 0.00 | 0.00 | 29 | 1005.4 |
| 20260504190146 | 20 | 223 | 22.5 | 33.8 | 0.00 | 0.00 | 0.00 | 30 | 1005.4 |
| 20260504184635 | 20 | 237 | 19.3 | 35.4 | 0.00 | 0.00 | 0.00 | 34 | 1005.5 |
| 20260504183213 | 20 | 184 | 14.5 | 33.8 | 0.00 | 0.00 | 0.00 | 39 | 1005.6 |
| 20260504181708 | 20 | 219 | 17.7 | 30.6 | 0.00 | 0.00 | 0.00 | 33 | 1005.8 |
| 20260504180143 | 21 | 207 | 20.9 | 30.6 | 0.00 | 0.00 | 0.00 | 32 | 1005.9 |
| 20260504174656 | 20 | 244 | 11.3 | 38.6 | 0.00 | 0.00 | 0.00 | 39 | 1006.0 |
| 20260504173211 | 20 | 244 | 22.5 | 37.0 | 0.00 | 0.00 | 0.00 | 31 | 1006.0 |
| 20260504171641 | 18 | 221 | 29.0 | 43.5 | 0.00 | 0.00 | 0.00 | 37 | 1006.0 |
| 20260504170136 | 18 | 246 | 16.1 | 32.2 | 0.00 | 0.00 | 0.00 | 43 | 1006.1 |
| 20260504160152 | 19 | 232 | 20.9 | 40.2 | 0.00 | 0.00 | 0.00 | 35 | 1006.9 |
| 20260504150147 | 18 | 224 | 20.9 | 37.0 | 0.00 | 0.00 | 0.00 | 35 | 1007.6 |
| 20260504140145 | 17 | 194 | 11.3 | 25.7 | 0.00 | 0.00 | 0.00 | 38 | 1008.1 |
| 20260504130139 | 15 | 221 | 12.9 | 29.0 | 0.00 | 0.00 | 0.00 | 43 | 1008.6 |
| 20260504120156 | 11 | 220 | 4.8 | 6.4 | 0.00 | 0.00 | 0.00 | 65 | 1009.0 |
| 20260504110148 | 10 | 234 | 6.4 | 11.3 | 0.00 | 0.00 | 0.00 | 52 | 1009.3 |
| 20260504100139 | 10 | 207 | 6.4 | 11.3 | 0.00 | 0.00 | 0.00 | 53 | 1009.2 |
| 20260504090133 | 10 | 209 | 9.7 | 17.7 | 0.00 | 0.00 | 0.00 | 50 | 1009.0 |
| 20260504081633 | 10 | 215 | 4.8 | 11.3 | 0.00 | 0.00 | 0.00 | 50 | 1009.0 |